Time,TemperatureF,DewpointF,PressureIn,WindDirection,WindDirectionDegrees,WindSpeedMPH,WindSpeedGustMPH,Humidity,HourlyPrecipIn,Conditions,Clouds,dailyrainin,SoftwareType,DateUTC
2013-08-17 00:13:00,62.0,57.0,30.24,SSE,164,0.0,1.0,83,0.00,,,0.00,,2013-08-17 05:13:00,
2013-08-17 00:22:00,62.0,57.0,30.24,SSE,164,0.0,1.0,83,0.00,,,0.00,,2013-08-17 05:22:00,
2013-08-17 00:42:00,61.0,56.0,30.25,SSE,164,0.0,0.0,84,0.00,,,0.00,,2013-08-17 05:42:00,
2013-08-17 00:51:00,60.0,55.0,30.25,SSE,164,0.0,0.0,84,0.00,,,0.00,,2013-08-17 05:51:00,
2013-08-17 01:12:00,60.0,56.0,30.25,SSE,164,0.0,0.0,86,0.00,,,0.00,,2013-08-17 06:12:00,
2013-08-17 01:21:00,59.0,55.0,30.26,SSE,164,0.0,1.0,86,0.00,,,0.00,,2013-08-17 06:21:00,
2013-08-17 01:51:00,58.0,54.0,30.25,SSE,164,0.0,0.0,87,0.00,,,0.00,,2013-08-17 06:51:00,
2013-08-17 02:11:00,58.0,54.0,30.25,SSE,164,0.0,0.0,87,0.00,,,0.00,,2013-08-17 07:11:00,
2013-08-17 02:22:00,57.0,53.0,30.25,SSE,164,0.0,0.0,88,0.00,,,0.00,,2013-08-17 07:22:00,
2013-08-17 02:42:00,57.0,53.0,30.26,SSE,164,0.0,0.0,88,0.00,,,0.00,,2013-08-17 07:42:00,
2013-08-17 02:52:00,56.0,53.0,30.26,SSE,164,0.0,0.0,89,0.00,,,0.00,,2013-08-17 07:52:00,
2013-08-17 03:11:00,56.0,53.0,30.26,SSE,164,0.0,0.0,89,0.00,,,0.00,,2013-08-17 08:11:00,
2013-08-17 03:21:00,56.0,53.0,30.26,SSE,164,0.0,0.0,89,0.00,,,0.00,,2013-08-17 08:21:00,
2013-08-17 03:42:00,56.0,53.0,30.26,SSE,164,0.0,0.0,89,0.00,,,0.00,,2013-08-17 08:42:00,
2013-08-17 03:52:00,56.0,53.0,30.26,SSE,164,0.0,0.0,89,0.00,,,0.00,,2013-08-17 08:52:00,
2013-08-17 04:11:00,55.0,52.0,30.26,SSE,164,0.0,0.0,89,0.00,,,0.00,,2013-08-17 09:11:00,
2013-08-17 04:21:00,55.0,52.0,30.26,SSE,164,0.0,0.0,89,0.00,,,0.00,,2013-08-17 09:21:00,
2013-08-17 04:43:00,55.0,52.0,30.26,SSE,164,0.0,0.0,90,0.00,,,0.00,,2013-08-17 09:43:00,
2013-08-17 04:53:00,54.0,51.0,30.26,SSE,164,0.0,0.0,89,0.00,,,0.00,,2013-08-17 09:53:00,
2013-08-17 05:12:00,54.0,51.0,30.27,SSE,164,0.0,0.0,90,0.00,,,0.00,,2013-08-17 10:12:00,
2013-08-17 05:23:00,54.0,51.0,30.27,SSE,164,0.0,0.0,90,0.00,,,0.00,,2013-08-17 10:23:00,
2013-08-17 05:52:00,55.0,52.0,30.27,SSE,164,1.0,1.0,91,0.00,,,0.00,,2013-08-17 10:52:00,
2013-08-17 06:11:00,55.0,52.0,30.28,SSE,164,0.0,1.0,90,0.00,,,0.00,,2013-08-17 11:11:00,
2013-08-17 06:21:00,55.0,52.0,30.28,SSE,164,0.0,1.0,90,0.00,,,0.00,,2013-08-17 11:21:00,
2013-08-17 06:42:00,55.0,52.0,30.28,SSE,164,0.0,1.0,90,0.00,,,0.00,,2013-08-17 11:42:00,
2013-08-17 06:52:00,55.0,52.0,30.28,SSE,164,0.0,2.0,90,0.00,,,0.00,,2013-08-17 11:52:00,
2013-08-17 07:11:00,55.0,52.0,30.28,SSE,164,0.0,2.0,90,0.00,,,0.00,,2013-08-17 12:11:00,
2013-08-17 07:21:00,56.0,53.0,30.29,SSE,164,1.0,1.0,90,0.00,,,0.00,,2013-08-17 12:21:00,
2013-08-17 07:42:00,57.0,54.0,30.29,SSE,164,0.0,0.0,90,0.00,,,0.00,,2013-08-17 12:42:00,
2013-08-17 07:51:00,58.0,55.0,30.29,SSE,164,0.0,1.0,89,0.00,,,0.00,,2013-08-17 12:51:00,
2013-08-17 08:11:00,59.0,55.0,30.29,SSE,164,0.0,2.0,87,0.00,,,0.00,,2013-08-17 13:11:00,
2013-08-17 08:21:00,61.0,56.0,30.29,SSE,164,0.0,2.0,85,0.00,,,0.00,,2013-08-17 13:21:00,
2013-08-17 08:42:00,62.0,57.0,30.29,SSE,164,0.0,1.0,84,0.00,,,0.00,,2013-08-17 13:42:00,
2013-08-17 08:52:00,65.0,58.0,30.29,SSE,164,0.0,1.0,79,0.00,,,0.00,,2013-08-17 13:52:00,
2013-08-17 09:11:00,67.0,59.0,30.30,SSE,164,2.0,2.0,75,0.00,,,0.00,,2013-08-17 14:11:00,
2013-08-17 09:21:00,68.0,58.0,30.29,SSE,164,0.0,3.0,71,0.00,,,0.00,,2013-08-17 14:21:00,
2013-08-17 09:42:00,70.0,60.0,30.29,SSE,164,1.0,3.0,70,0.00,,,0.00,,2013-08-17 14:42:00,
2013-08-17 09:52:00,70.0,58.0,30.29,South,169,0.0,5.0,65,0.00,,,0.00,,2013-08-17 14:52:00,
2013-08-17 10:11:00,72.0,58.0,30.29,SSE,167,1.0,4.0,62,0.00,,,0.00,,2013-08-17 15:11:00,
2013-08-17 10:22:00,73.0,59.0,30.29,South,171,1.0,5.0,61,0.00,,,0.00,,2013-08-17 15:22:00,
2013-08-17 10:43:00,74.0,58.0,30.29,SSE,162,0.0,4.0,58,0.00,,,0.00,,2013-08-17 15:43:00,
2013-08-17 10:53:00,74.0,57.0,30.29,SSE,164,2.0,6.0,56,0.00,,,0.00,,2013-08-17 15:53:00,
2013-08-17 11:12:00,75.0,58.0,30.29,SE,140,4.0,5.0,56,0.00,,,0.00,,2013-08-17 16:12:00,
2013-08-17 11:23:00,75.0,57.0,30.29,SSE,161,0.0,4.0,54,0.00,,,0.00,,2013-08-17 16:23:00,
2013-08-17 11:42:00,76.0,59.0,30.29,SSE,153,2.0,4.0,55,0.00,,,0.00,,2013-08-17 16:42:00,
2013-08-17 11:53:00,77.0,57.0,30.29,South,182,0.0,6.0,51,0.00,,,0.00,,2013-08-17 16:53:00,
2013-08-17 12:12:00,78.0,58.0,30.28,SSE,156,3.0,6.0,50,0.00,,,0.00,,2013-08-17 17:12:00,
2013-08-17 12:23:00,78.0,57.0,30.28,SSE,161,1.0,6.0,49,0.00,,,0.00,,2013-08-17 17:23:00,
2013-08-17 12:52:00,78.0,57.0,30.27,ESE,123,1.0,5.0,48,0.00,,,0.00,,2013-08-17 17:52:00,
2013-08-17 13:12:00,79.0,58.0,30.27,SE,124,0.0,5.0,49,0.00,,,0.00,,2013-08-17 18:12:00,
2013-08-17 13:21:00,78.0,58.0,30.27,SSE,165,3.0,6.0,50,0.00,,,0.00,,2013-08-17 18:21:00,
2013-08-17 13:42:00,78.0,58.0,30.26,SE,146,3.0,6.0,51,0.00,,,0.00,,2013-08-17 18:42:00,
2013-08-17 13:52:00,80.0,58.0,30.26,SSE,157,2.0,5.0,47,0.00,,,0.00,,2013-08-17 18:52:00,
2013-08-17 14:11:00,78.0,57.0,30.26,SE,132,1.0,8.0,49,0.00,,,0.00,,2013-08-17 19:11:00,
2013-08-17 14:21:00,79.0,58.0,30.25,South,176,3.0,5.0,49,0.00,,,0.00,,2013-08-17 19:21:00,
2013-08-17 14:42:00,80.0,57.0,30.25,South,174,6.0,7.0,46,0.00,,,0.00,,2013-08-17 19:42:00,
2013-08-17 14:52:00,78.0,57.0,30.24,SSE,159,0.0,8.0,48,0.00,,,0.00,,2013-08-17 19:52:00,
2013-08-17 15:11:00,79.0,56.0,30.24,ESE,116,2.0,7.0,45,0.00,,,0.00,,2013-08-17 20:11:00,
2013-08-17 15:21:00,79.0,56.0,30.24,SE,145,1.0,4.0,46,0.00,,,0.00,,2013-08-17 20:21:00,
2013-08-17 15:42:00,79.0,57.0,30.24,South,181,1.0,6.0,47,0.00,,,0.00,,2013-08-17 20:42:00,
2013-08-17 15:52:00,80.0,57.0,30.24,South,181,2.0,5.0,45,0.00,,,0.00,,2013-08-17 20:52:00,
2013-08-17 16:11:00,79.0,57.0,30.23,SSE,156,3.0,5.0,47,0.00,,,0.00,,2013-08-17 21:11:00,
2013-08-17 16:21:00,79.0,56.0,30.23,SE,128,3.0,6.0,46,0.00,,,0.00,,2013-08-17 21:21:00,
2013-08-17 16:42:00,79.0,56.0,30.23,SSE,153,1.0,7.0,45,0.00,,,0.00,,2013-08-17 21:42:00,
2013-08-17 16:53:00,79.0,56.0,30.23,SE,128,2.0,5.0,46,0.00,,,0.00,,2013-08-17 21:53:00,
2013-08-17 17:13:00,79.0,55.0,30.23,SE,142,2.0,4.0,44,0.00,,,0.00,,2013-08-17 22:13:00,
2013-08-17 17:22:00,79.0,58.0,30.23,SSE,160,1.0,6.0,48,0.00,,,0.00,,2013-08-17 22:22:00,
2013-08-17 17:42:00,78.0,56.0,30.23,SSE,159,1.0,6.0,46,0.00,,,0.00,,2013-08-17 22:42:00,
2013-08-17 17:52:00,78.0,56.0,30.22,SSE,158,2.0,5.0,46,0.00,,,0.00,,2013-08-17 22:52:00,
2013-08-17 18:11:00,78.0,56.0,30.22,SSE,150,3.0,5.0,47,0.00,,,0.00,,2013-08-17 23:11:00,
2013-08-17 18:22:00,78.0,57.0,30.22,SSE,163,1.0,5.0,48,0.00,,,0.00,,2013-08-17 23:22:00,
2013-08-17 18:42:00,77.0,55.0,30.22,SSE,167,1.0,5.0,47,0.00,,,0.00,,2013-08-17 23:42:00,
2013-08-17 18:51:00,77.0,56.0,30.22,SSE,163,3.0,4.0,49,0.00,,,0.00,,2013-08-17 23:51:00,
2013-08-17 19:21:00,75.0,59.0,30.21,South,169,0.0,3.0,57,0.00,,,0.00,,2013-08-18 00:21:00,
2013-08-17 19:42:00,74.0,58.0,30.21,South,169,1.0,2.0,58,0.00,,,0.00,,2013-08-18 00:42:00,
2013-08-17 19:52:00,73.0,59.0,30.21,South,169,0.0,2.0,61,0.00,,,0.00,,2013-08-18 00:52:00,
2013-08-17 20:11:00,72.0,60.0,30.21,South,169,0.0,1.0,65,0.00,,,0.00,,2013-08-18 01:11:00,
2013-08-17 20:21:00,70.0,58.0,30.21,South,169,0.0,1.0,66,0.00,,,0.00,,2013-08-18 01:21:00,
2013-08-17 20:42:00,69.0,56.0,30.21,South,169,0.0,1.0,64,0.00,,,0.00,,2013-08-18 01:42:00,
2013-08-17 20:52:00,69.0,57.0,30.21,South,169,0.0,0.0,65,0.00,,,0.00,,2013-08-18 01:52:00,
2013-08-17 21:11:00,68.0,58.0,30.21,South,169,0.0,0.0,70,0.00,,,0.00,,2013-08-18 02:11:00,
2013-08-17 21:21:00,67.0,58.0,30.22,South,169,0.0,0.0,73,0.00,,,0.00,,2013-08-18 02:21:00,
2013-08-17 21:42:00,66.0,58.0,30.22,South,169,0.0,0.0,75,0.00,,,0.00,,2013-08-18 02:42:00,
2013-08-17 21:52:00,64.0,58.0,30.22,South,169,0.0,0.0,80,0.00,,,0.00,,2013-08-18 02:52:00,
2013-08-17 22:11:00,64.0,58.0,30.22,South,169,0.0,1.0,80,0.00,,,0.00,,2013-08-18 03:11:00,
2013-08-17 22:21:00,63.0,56.0,30.22,South,169,0.0,2.0,78,0.00,,,0.00,,2013-08-18 03:21:00,
2013-08-17 22:43:00,64.0,56.0,30.22,South,169,0.0,1.0,76,0.00,,,0.00,,2013-08-18 03:43:00,
2013-08-17 22:53:00,64.0,56.0,30.22,South,169,0.0,0.0,76,0.00,,,0.00,,2013-08-18 03:53:00,
2013-08-17 23:02:00,-999.0,-99.9,30.22,South,169,0.0,1.0,-999,0.00,,,0.00,,2013-08-18 04:02:00,
2013-08-17 23:12:00,63.0,56.0,30.22,South,169,0.0,1.0,78,0.00,,,0.00,,2013-08-18 04:12:00,
2013-08-17 23:23:00,62.0,55.0,30.22,South,169,0.0,1.0,79,0.00,,,0.00,,2013-08-18 04:23:00,
2013-08-17 23:42:00,62.0,56.0,30.22,South,169,0.0,0.0,80,0.00,,,0.00,,2013-08-18 04:42:00,
2013-08-17 23:53:00,61.0,55.0,30.22,South,169,0.0,0.0,82,0.00,,,0.00,,2013-08-18 04:53:00,